sat.trackr.live / text

‹ back to catalog

SEEDS II (CO-66)

NORAD 32791 · 2008-021J

PAYLOAD ACTIVE UNKNOWN

§ Identity

Operator
Country
JPN
Launch date
2008-04-28
Launch site
SRILR
Launch vehicle
Mass (kg)
RCS (m²)
0.05

Purposes: comms, tech_demo

External: N2YO · Heavens-Above · Gunter

§ Orbital elements

Epoch: 2026-09-19T23:10:16.760064Z

Period
93.77 min
Inclination
97.7577°
Eccentricity
0.0002394
Mean motion
15.35713894 rev/d
Perigee alt
457.2 km
Apogee alt
460.4 km
Semi-major
6,836.9 km
B*
4.0691e-4
RAAN
265.6353°
Arg perigee
30.6292°
Mean anomaly
329.5090°
Rev number
181

§ Raw data

SEEDS II (CO-66)1 32791U 08021J   26262.96547176  .00014057  00000+0  40691-3 0  99952 32791  97.7577 265.6353 0002394  30.6292 329.5090 15.35713894  1810

JSON: /api/v1/satellites/32791 · /tle

For live sub-satellite position, see the globe view (requires WebGL).

§ Visibility from observer

Set your observer location to see the next 7 days of passes ≥ 10°. The values pass through the URL so the page stays shareable.

No JS? Fill the form by hand. The geolocation button needs JavaScript.

§ Radio — SatNOGS DB

ModeDescriptionDownlinkUplink
CW CW 437.485 MHz
FMN Mode U Digi 437.485 MHz
SSTV Mode U SSTV 437.485 MHz
AFSK Mode U TLM 437.485 MHz
CW PE0SAT - CW Beacon 437.486 MHz

5 transmitters · refreshed weekly from db.satnogs.org